Wind_Speed
5 4 4 4 4 4 5 5 6 6 6 7 7 7 7 8 8 9 9 10 10 11 11 11 11 10 10 10 10 9 9 8 8 9 9 8 8 8 9 10 10 10 10 10 10 9 9 9 8 9 9 10 11 11 10 10 10 11 11 11 11 11 12 12 11 11 10 10 9 9 9 9 9 9 9 9 9 9 9 9 9 9 9 9 10
4 4 4 3 3 3 3 3 4 5 5 6 6 6 6 6 7 8 9 9 9 10 11 11 11 11 11 11 10 10 10 9 9 9 9 9 8 8 8 9 9 10 10 10 9 9 8 8 7 7 8 9 10 11 11 11 11 11 11 11 12 12 12 13 12 12 12 11 10 10 10 10 10 10 10 10 10 10 10 10 10 9 9 9 9
3 3 3 3 2 2 2 2 2 3 3 4 5 5 6 5 6 6 7 7 8 9 10 11 11 12 12 12 12 11 11 10 10 10 9 9 9 8 8 9 9 9 10 10 9 9 8 8 8 8 8 8 9 10 11 11 11 12 12 12 12 12 12 13 13 13 13 12 12 12 12 12 11 11 10 10 10 10 10 10 9 9 9 9 9
3 2 2 2 2 2 1 1 1 1 1 2 3 4 5 6 6 6 6 6 6 7 8 9 10 11 11 11 11 11 11 11 11 10 10 10 9 8 8 9 9 9 9 9 9 9 9 9 8 8 8 8 9 9 10 11 11 11 12 12 12 12 12 12 12 12 12 12 12 12 12 12 12 11 11 10 10 10 10 9 9 9 9 9 10
6 4 3 2 1 1 1 1 1 1 1 2 2 3 4 5 6 7 7 7 6 6 7 7 8 9 10 11 11 11 11 11 11 11 10 10 10 9 9 9 9 9 9 9 9 9 9 9 9 9 9 9 9 9 9 10 10 11 11 12 11 11 11 11 12 11 12 12 11 11 11 11 11 11 10 10 10 10 10 9 9 9 10 10 10
8 7 6 5 3 2 1 1 2 2 2 3 3 3 3 4 5 6 7 7 8 8 7 7 8 9 9 10 10 11 11 11 11 11 11 11 11 10 10 10 9 9 9 9 9 9 9 9 9 9 8 8 8 9 9 9 9 9 10 10 10 10 11 11 11 11 11 11 10 10 10 10 9 9 9 9 9 10 10 9 9 9 10 11 11
10 10 9 8 6 5 4 3 3 3 3 4 4 5 5 5 5 5 6 7 7 8 8 8 9 9 9 9 10 10 11 11 11 11 12 11 11 11 11 10 10 10 9 9 9 9 9 9 9 9 8 8 8 8 8 8 8 8 8 8 8 8 9 9 9 10 10 10 10 10 10 10 9 8 8 8 9 9 9 9 9 9 9 10 11
9 10 11 10 9 8 6 5 4 4 4 4 4 5 5 6 7 7 7 7 7 7 8 8 9 9 9 9 10 10 10 11 11 11 11 11 11 11 11 10 10 10 9 9 9 8 8 8 8 8 8 8 8 8 8 7 7 7 7 7 6 6 7 7 7 8 8 9 9 9 10 9 9 8 8 8 8 8 8 8 9 9 9 9 9
8 9 11 12 11 11 9 8 7 6 5 5 5 5 6 6 7 8 8 8 8 8 8 9 9 9 9 10 10 10 10 10 11 11 11 11 11 11 11 11 10 10 9 9 9 9 9 8 8 8 8 8 8 8 8 8 7 7 7 7 6 6 6 6 6 7 7 7 7 8 8 8 8 8 8 7 8 8 7 7 7 8 8 8 9
7 8 9 11 12 12 12 11 10 9 8 7 6 6 7 7 8 8 9 9 10 10 10 10 10 10 10 10 10 11 11 11 11 11 11 11 11 11 11 11 10 10 10 9 10 10 10 9 9 9 9 9 9 8 8 8 7 7 7 7 7 7 7 7 7 7 7 7 7 8 8 8 8 8 7 7 7 7 6 6 5 6 7 8 8
6 7 8 9 10 12 13 13 12 11 10 9 9 8 8 9 9 9 9 10 10 11 11 11 11 11 12 12 11 11 11 11 11 10 10 10 10 10 10 10 10 10 9 9 9 9 9 9 9 9 9 9 8 8 8 8 7 7 7 7 7 7 7 7 7 8 8 8 8 8 8 9 8 8 8 8 7 6 6 5 5 6 6 7 7
5 6 7 8 9 10 12 13 13 13 13 12 11 11 11 11 11 11 11 11 10 11 11 11 11 12 12 12 12 12 12 12 12 12 12 11 11 11 11 10 10 10 10 9 9 9 9 9 9 9 9 9 9 9 8 8 8 8 8 8 8 8 8 8 8 8 8 9 9 9 9 10 10 9 9 9 8 7 6 6 5 5 4 4 5
6 6 6 7 7 8 10 11 12 14 14 14 14 13 13 13 12 12 12 12 12 12 12 11 11 11 11 11 12 12 13 13 13 13 13 13 13 12 12 11 11 11 10 10 10 10 10 10 10 9 9 9 9 9 9 9 9 9 9 9 9 9 9 9 9 9 9 9 10 10 10 10 11 10 10 10 9 8 6 5 5 4 4 3 3
8 7 7 6 7 8 8 9 10 12 14 15 15 15 15 15 14 14 14 13 14 13 13 13 13 12 12 12 12 12 12 13 13 13 13 14 14 14 13 13 12 12 12 12 12 11 11 11 11 11 11 11 11 11 11 11 11 11 10 10 10 10 9 9 10 10 10 10 11 11 11 11 11 11 11 10 9 8 6 5 6 5 5 5 5
9 9 9 8 7 7 8 9 9 10 12 13 15 16 16 16 16 16 15 15 15 15 15 15 15 15 14 14 14 14 13 13 13 13 13 14 14 14 14 14 14 14 14 13 13 13 13 13 13 13 12 12 12 12 12 12 12 12 12 12 11 11 10 10 10 10 10 11 11 12 12 12 12 12 11 10 9 8 8 7 7 7 7 7 7
10 10 10 9 9 9 9 9 9 10 10 11 12 14 15 16 17 17 17 17 17 17 16 16 16 16 16 16 16 16 16 16 15 15 15 15 15 15 15 15 16 16 15 15 15 15 15 15 15 15 14 14 14 14 14 14 14 13 13 13 13 12 12 11 11 11 11 11 12 12 12 13 13 13 12 12 11 10 10 9 9 9 9 10 10
11 11 11 10 10 10 10 10 10 10 10 11 12 12 14 15 16 17 18 19 19 19 18 18 18 18 18 18 18 18 18 18 18 17 17 16 16 16 16 17 17 17 17 17 17 17 17 17 17 17 16 16 16 15 15 15 15 15 15 15 14 14 14 13 13 13 13 13 13 13 13 13 13 14 14 14 13 13 12 12 12 12 12 13 13
11 12 12 11 11 11 11 11 11 11 11 11 12 12 13 14 15 16 17 18 19 20 20 20 20 20 20 20 20 20 20 20 20 20 20 19 19 18 18 18 18 19 19 19 19 19 19 19 19 19 19 18 18 17 17 17 17 17 16 16 16 16 16 16 15 15 15 15 15 15 15 15 15 15 16 16 16 16 16 15 15 15 15 15 15
13 13 13 12 12 12 12 12 12 12 12 12 12 13 13 14 14 15 16 17 18 19 20 20 21 22 22 22 22 22 22 22 22 22 22 22 21 21 21 20 20 20 20 20 20 20 20 20 21 21 21 20 20 20 19 19 19 19 18 18 18 18 18 18 18 18 18 18 18 18 17 17 17 17 18 18 19 19 19 18 18 17 17 18 18
15 14 14 13 13 14 14 14 13 13 13 13 14 14 14 14 15 15 15 16 17 18 19 19 20 21 22 23 23 23 23 23 23 23 24 24 24 23 23 23 23 22 22 22 22 22 22 22 22 23 23 23 22 22 22 22 21 21 21 20 20 20 20 19 19 20 20 20 20 20 20 20 20 20 20 21 21 21 21 21 20 20 20 20 20
17 16 15 15 15 16 16 16 14 14 14 14 15 15 15 15 16 16 16 16 17 17 18 19 20 21 21 22 23 23 24 24 24 24 25 25 25 25 25 25 25 25 24 24 24 24 23 23 23 24 24 25 25 24 24 24 24 23 23 22 22 22 21 21 21 21 21 22 22 23 23 23 23 23 23 23 23 24 24 23 23 23 23 22 23
20 19 18 17 17 18 18 18 17 16 16 16 16 16 16 16 17 17 17 18 18 18 19 19 20 21 21 22 23 23 24 24 24 24 25 25 25 26 26 26 26 26 26 26 26 26 26 25 25 25 25 26 26 26 26 26 26 25 25 24 24 23 23 23 23 23 23 24 24 24 25 25 26 26 26 26 26 26 26 26 26 25 25 25 25
23 22 21 20 20 21 21 20 20 19 18 18 17 18 18 18 18 18 19 19 19 19 20 20 21 21 22 22 23 23 24 24 24 25 25 25 25 26 27 28 28 28 28 28 28 28 28 28 27 27 27 27 27 27 27 27 27 27 27 27 26 26 25 25 25 25 25 25 25 25 26 26 27 27 28 28 28 28 28 28 28 28 28 28 27
25 25 24 24 24 23 23 24 23 22 21 20 20 20 20 20 20 20 20 20 20 21 21 22 22 22 23 23 24 24 24 24 25 25 26 26 26 27 28 28 29 30 30 29 29 29 29 29 29 29 29 29 29 29 29 29 29 29 29 29 29 29 28 28 27 27 27 27 27 27 27 27 28 28 29 30 30 30 30 30 30 30 30 30 30
28 27 27 27 27 27 26 27 26 25 24 23 23 23 22 22 22 23 22 22 22 23 23 23 24 24 24 24 25 25 25 25 25 26 26 27 27 28 29 30 30 31 31 31 31 31 31 31 31 31 31 31 31 31 31 31 31 31 31 31 31 31 31 31 31 30 30 30 29 29 29 29 29 29 30 30 31 31 32 32 32 32 32 32 32
30 30 31 31 31 30 30 30 29 29 27 26 26 26 25 25 25 25 25 25 25 25 25 25 25 25 25 25 26 26 27 27 27 27 27 28 28 28 29 30 31 31 32 32 32 32 32 32 32 32 32 32 32 32 32 33 33 33 33 33 33 34 34 34 34 34 33 33 33 33 32 32 32 32 31 31 32 32 33 33 34 34 34 34 34
32 33 34 33 34 34 33 32 32 32 31 30 29 29 28 28 28 28 27 28 28 28 28 27 27 26 26 26 27 28 28 29 29 29 29 29 29 29 29 30 30 31 31 31 32 32 32 33 33 32 32 32 32 33 33 33 33 33 34 34 35 35 36 36 36 36 36 36 36 36 35 35 35 34 34 33 33 33 34 34 35 35 35 36 35
32 35 36 35 35 36 36 35 35 34 33 33 32 31 31 31 31 31 31 31 31 31 30 30 29 28 28 28 28 29 29 29 30 30 30 30 30 30 30 30 30 30 31 31 31 31 32 32 32 32 32 32 32 32 32 32 33 33 34 34 35 36 37 37 37 37 37 37 37 37 37 37 36 36 36 35 35 35 35 35 35 36 36 37 37
30 34 35 36 37 37 37 36 37 36 36 35 34 34 34 34 33 33 34 34 34 34 33 32 31 31 30 30 30 30 30 30 30 30 31 31 31 31 31 31 31 31 31 31 31 31 32 32 32 32 32 32 32 32 32 32 33 34 34 35 35 36 37 37 37 38 37 37 37 37 37 36 36 36 36 36 36 36 36 36 36 37 37 38 38
28 31 32 34 36 37 36 37 37 37 37 36 35 35 35 35 35 35 36 36 36 36 36 35 34 34 33 33 32 32 32 31 31 31 31 32 32 33 33 32 32 31 31 31 31 31 32 32 32 32 32 32 32 32 33 33 34 34 35 35 36 36 37 37 37 37 37 37 37 37 36 36 36 35 35 35 35 36 36 36 37 37 38 38 38
28 28 29 33 34 35 36 37 37 37 37 36 35 36 35 35 35 36 36 36 37 37 37 37 37 36 35 35 34 34 33 33 32 32 32 32 33 34 34 34 34 33 32 32 32 32 32 33 33 33 33 33 33 34 34 34 35 35 35 36 36 36 37 37 38 38 38 38 38 37 37 36 36 35 35 34 34 34 35 35 36 37 37 37 38
29 29 30 31 31 33 35 35 36 36 35 35 35 34 33 34 34 35 35 36 36 36 37 38 38 38 37 37 36 35 35 35 34 33 33 33 34 35 35 35 35 35 34 33 33 33 34 34 34 34 34 34 35 35 35 35 35 35 35 36 36 36 37 37 38 38 38 39 39 38 38 37 37 36 36 35 35 35 35 35 36 36 37 37 37
31 32 31 30 30 33 34 34 35 34 34 34 34 33 32 33 33 33 34 34 35 35 36 37 38 39 38 38 37 37 37 36 36 35 34 33 34 35 36 36 37 36 36 36 35 35 35 35 35 35 35 35 35 36 36 36 36 35 35 35 35 36 36 37 37 38 38 39 39 39 39 39 39 38 38 38 37 37 37 37 37 37 37 37 37
33 34 33 32 32 32 33 33 33 33 34 34 34 33 33 33 33 33 33 33 33 34 35 36 37 38 38 38 37 37 37 37 37 36 36 35 34 35 36 37 38 38 38 37 37 37 37 36 36 36 36 36 36 37 37 37 37 36 36 36 36 36 36 37 37 37 38 38 39 39 40 40 40 40 40 40 39 39 38 38 38 38 37 37 37
35 34 34 34 34 32 31 31 31 32 33 34 34 35 35 34 34 33 33 33 33 32 33 34 36 37 38 37 37 37 37 38 38 38 37 36 36 36 36 38 38 39 39 39 39 39 38 38 37 37 37 37 37 38 38 38 38 38 38 38 38 38 38 38 38 38 38 38 38 38 39 39 40 40 40 40 40 39 39 38 38 38 37 37 37
36 35 35 36 35 33 32 31 31 31 32 34 35 36 36 35 34 33 33 33 32 32 32 33 34 35 36 37 37 37 37 38 39 39 39 38 38 38 38 38 39 39 40 40 40 40 39 39 38 38 38 38 38 39 39 39 40 40 41 41 40 40 40 39 39 39 38 38 38 38 38 38 39 39 39 40 40 40 39 39 39 38 39 39 39
39 38 37 37 37 36 34 33 33 33 33 34 35 36 36 35 34 34 33 32 32 32 33 33 33 34 35 36 37 37 37 38 39 40 40 40 40 39 39 39 39 40 40 40 40 40 40 39 39 39 39 39 39 40 40 41 42 42 43 42 42 41 41 40 39 39 39 38 38 38 38 38 38 39 39 39 39 39 39 39 39 39 40 40 40
40 40 39 39 39 39 37 35 35 35 35 36 36 36 36 35 35 34 33 32 32 33 34 34 33 34 35 37 37 37 37 38 39 40 41 41 41 41 40 40 40 41 41 40 41 41 41 40 40 39 39 40 40 41 41 42 43 43 43 43 43 42 41 40 40 39 39 39 38 38 38 38 38 39 39 39 39 40 40 40 40 40 40 40 40
39 41 42 41 40 41 40 38 37 37 38 38 36 36 36 35 35 35 34 32 32 34 36 36 34 35 36 37 38 38 38 38 39 40 41 42 42 42 42 41 41 41 41 40 41 42 42 41 40 39 39 40 41 41 42 42 43 43 44 43 43 42 41 40 40 39 39 39 38 38 38 38 38 39 39 39 40 40 41 41 40 40 40 40 40
36 38 40 41 41 42 42 39 38 40 40 39 37 36 36 35 35 35 34 33 34 36 38 38 36 35 36 37 38 38 37 37 38 39 40 41 42 42 42 41 40 40 39 40 42 43 42 40 39 39 40 40 41 41 41 42 43 43 43 43 43 42 42 41 40 40 39 39 38 38 38 38 38 39 39 40 40 41 41 41 41 41 41 41 41
36 37 37 39 40 41 41 40 39 40 41 40 39 38 37 36 37 36 36 36 37 38 39 40 39 37 38 38 38 38 38 38 39 40 40 41 41 41 41 41 40 39 39 41 43 43 42 40 39 40 40 40 40 41 41 42 42 42 42 42 42 42 42 42 42 41 40 39 38 38 38 38 39 39 40 40 41 41 42 42 42 42 42 42 42
38 39 39 38 39 39 39 39 40 40 40 40 41 40 39 40 39 39 39 39 39 39 39 40 41 40 40 40 40 40 41 41 42 42 42 42 41 41 41 41 40 40 40 42 43 43 42 40 40 41 41 41 40 41 41 42 42 41 41 41 41 41 41 42 42 42 41 40 39 39 39 39 40 40 41 42 42 42 42 43 43 43 43 43 43
38 39 40 39 39 38 38 38 39 40 40 41 42 42 43 43 42 41 42 42 42 41 41 42 43 42 42 42 43 43 44 44 44 44 44 43 42 42 42 42 42 41 42 43 45 45 42 41 41 42 42 41 41 41 42 42 42 41 41 41 41 41 41 41 41 41 41 41 40 40 40 40 41 42 42 43 43 43 43 43 43 44 44 44 43
36 38 38 39 38 38 37 37 38 39 40 41 42 43 43 44 44 43 44 45 45 44 44 44 44 44 44 44 45 46 47 46 45 44 44 44 43 42 43 43 43 43 44 45 46 45 43 42 43 43 42 42 42 42 42 43 43 42 41 41 41 40 40 40 40 40 40 40 40 40 40 40 41 41 42 43 43 44 44 43 43 43 44 44 43
34 36 38 38 37 38 38 38 38 39 40 41 42 43 43 43 44 44 45 46 46 47 47 47 46 46 46 46 47 48 48 47 46 45 44 44 43 43 43 44 44 44 45 46 46 45 44 44 44 44 43 43 43 43 43 44 44 43 43 42 42 41 40 40 40 39 39 39 39 39 40 40 39 39 40 41 41 42 42 42 42 43 43 43 43
33 35 37 38 38 38 39 40 40 41 41 41 42 42 42 42 43 44 45 47 48 49 49 49 48 48 48 48 49 48 47 46 46 45 44 44 44 44 43 43 44 44 45 45 45 45 45 45 45 45 44 44 44 44 45 45 45 45 44 43 42 41 40 40 40 39 39 39 39 39 39 39 38 37 38 38 39 40 40 40 41 42 42 42 42
35 36 38 38 38 38 39 40 41 42 43 42 42 42 42 43 43 44 45 46 48 49 50 51 51 51 51 50 49 49 48 47 46 46 45 44 44 44 44 44 43 43 43 43 44 45 46 47 47 46 45 45 45 45 45 45 45 45 44 43 42 41 40 40 40 40 39 39 39 38 38 38 37 36 36 37 38 39 39 40 40 41 41 42 42
37 37 38 39 39 39 40 40 41 43 44 44 44 44 44 44 44 45 45 45 47 48 50 51 52 52 52 51 50 50 49 48 47 47 46 45 44 43 43 43 43 42 42 44 46 47 48 48 47 46 46 46 46 46 46 46 46 45 44 42 41 40 40 40 40 40 40 39 39 39 39 38 38 37 36 36 37 38 39 40 40 41 41 42 42
41 41 41 40 40 41 41 41 42 43 44 44 44 44 44 44 45 45 46 46 46 48 49 50 51 53 52 52 51 50 49 48 47 47 46 45 44 43 42 42 42 43 44 45 47 47 47 47 47 46 47 47 47 46 46 46 46 45 44 42 41 41 41 41 42 41 40 40 40 40 40 40 39 39 38 37 37 37 38 40 41 42 42 43 43
49 47 46 45 45 45 45 44 43 43 44 44 44 44 45 45 45 45 46 47 48 48 48 49 50 51 52 51 50 49 48 47 47 46 46 45 44 43 43 43 43 44 45 45 46 46 46 47 47 47 48 48 47 46 46 47 46 46 45 43 43 42 42 43 43 43 42 42 42 42 42 42 42 41 41 40 39 39 39 40 41 42 43 44 44
56 53 51 50 49 49 49 49 47 46 45 45 44 45 45 46 46 46 47 48 49 50 50 50 50 50 51 51 50 50 49 48 47 46 45 44 44 43 44 44 45 45 45 45 45 46 46 47 48 48 48 48 47 47 47 47 47 47 46 46 45 44 44 44 45 44 44 44 43 43 43 44 44 43 43 43 42 42 41 41 42 43 44 44 45
Wind_Direction
40 49 48 50 58 71 76 78 81 84 88 92 96 104 118 133 144 153 160 166 170 174 175 175 176 178 180 181 179 177 174 174 176 177 177 176 173 167 163 163 167 171 173 175 176 181 184 187 191 198 205 210 213 218 226 234 238 237 237 238 239 241 243 245 246 246 246 248 250 253 256 258 261 263 266 268 267 265 264 262 260 257 256 256 255
25 35 41 41 44 56 69 81 88 92 97 102 104 108 115 127 139 148 156 162 165 167 169 169 170 171 172 172 172 171 170 171 170 170 173 174 172 167 161 156 157 163 169 173 176 179 184 189 195 202 208 213 219 224 231 240 245 246 246 247 247 248 250 252 253 254 253 254 257 260 262 263 264 266 268 272 273 272 271 270 269 268 267 267 265
356 11 28 37 43 45 47 67 84 104 111 115 121 125 130 133 137 144 150 154 159 161 162 163 164 165 167 166 166 167 167 169 168 165 165 167 169 166 161 154 153 156 161 168 171 173 178 188 198 206 211 215 220 226 232 238 243 246 247 248 249 250 251 254 256 257 258 259 260 262 264 264 264 266 268 271 273 273 274 276 278 279 278 277 276
307 320 347 21 44 53 47 49 65 117 131 136 142 145 147 150 151 152 156 157 158 158 157 156 157 160 162 163 162 162 162 162 163 163 162 163 165 166 162 156 156 156 160 163 160 161 169 179 191 203 210 215 220 224 229 234 239 243 244 246 246 248 250 253 256 258 260 261 263 263 264 266 267 269 271 273 274 275 276 279 281 283 283 283 283
288 286 285 292 311 80 97 130 177 197 210 199 186 172 166 168 169 168 169 173 174 170 163 158 157 158 159 160 159 158 157 158 159 161 163 164 165 165 164 163 162 163 166 163 156 158 163 169 179 192 202 209 215 220 224 228 232 236 239 241 243 246 249 253 256 259 261 263 265 265 266 269 272 274 275 277 278 279 281 283 284 285 285 284 284
286 283 280 274 265 245 205 187 183 188 199 213 226 218 201 190 187 186 182 183 187 187 183 178 172 168 165 163 162 161 161 162 163 164 167 168 168 168 169 170 169 170 173 166 161 165 165 168 174 181 190 199 206 212 217 221 224 228 232 234 237 240 245 249 253 256 260 263 265 266 268 269 271 274 276 279 279 281 283 286 287 286 285 284 282
282 280 279 275 268 259 242 226 210 199 193 201 218 227 228 218 211 206 200 197 198 197 195 194 191 185 181 177 175 172 172 172 172 173 174 173 174 175 176 177 176 178 178 172 170 174 174 175 176 179 184 190 197 203 209 214 218 221 225 227 227 230 234 239 244 249 253 256 259 262 264 265 266 267 269 272 275 278 281 285 284 283 283 283 282
280 277 275 273 269 266 258 248 238 224 209 203 207 216 224 227 228 223 217 213 212 212 209 206 204 200 196 192 190 187 186 185 183 184 183 181 181 182 183 185 183 184 183 178 178 183 186 186 185 187 190 194 198 203 207 211 215 219 223 225 224 223 224 228 232 238 243 247 250 253 256 258 258 258 259 260 264 268 271 273 276 277 277 277 278
283 277 273 271 269 267 264 260 254 244 231 222 215 214 216 221 227 228 227 223 221 221 222 220 215 211 209 206 203 201 200 199 197 195 195 192 191 190 191 192 191 190 189 183 184 189 194 197 198 199 201 204 208 211 214 217 221 225 228 231 232 231 229 228 230 233 237 239 241 244 247 248 247 245 244 244 248 253 257 262 269 275 276 277 277
288 281 275 270 267 266 265 264 261 255 246 237 231 227 222 219 219 223 226 226 224 225 227 228 225 222 220 216 214 213 211 210 210 208 206 204 203 202 200 199 199 197 196 192 190 193 197 201 203 205 208 211 213 216 218 221 224 227 231 234 236 238 237 236 237 237 239 239 239 239 241 241 239 237 236 236 242 248 255 263 272 278 283 287 288
295 286 279 273 267 265 264 263 262 260 255 249 243 239 235 230 225 223 223 224 225 227 229 230 231 230 228 226 223 222 221 220 221 222 220 218 217 216 213 211 209 207 206 203 201 200 202 204 206 208 211 213 215 218 219 223 225 228 230 232 235 237 239 239 239 239 240 241 240 238 238 238 235 233 234 237 240 246 255 262 268 275 285 293 299
304 292 286 281 275 268 264 262 261 261 259 256 252 248 245 241 236 232 228 226 225 227 230 231 232 234 235 234 233 231 230 228 228 230 232 232 231 230 229 227 224 222 219 217 215 214 213 212 213 215 216 218 220 222 224 225 227 230 230 232 233 235 237 239 239 240 241 242 242 240 238 237 236 231 231 237 240 243 247 252 259 267 280 293 307
313 302 293 287 282 277 270 265 262 260 259 257 256 254 252 250 247 243 238 235 232 230 230 232 233 235 238 239 240 239 237 235 234 234 236 238 238 238 238 237 236 236 234 232 231 230 229 227 226 226 227 228 229 231 232 233 234 234 234 234 233 234 236 239 240 240 241 241 242 242 240 239 239 236 233 237 238 237 235 235 246 257 270 284 298
316 310 302 293 285 280 275 271 266 262 260 258 256 255 254 254 254 252 249 246 243 239 236 236 235 235 236 239 242 244 243 242 240 239 240 241 242 243 242 241 240 240 241 241 240 240 240 239 239 239 239 240 241 241 242 243 244 243 242 240 238 237 237 238 240 243 244 244 244 244 244 243 242 241 237 235 230 228 230 235 249 261 270 276 283
313 309 306 301 293 284 278 275 271 267 263 260 258 257 256 256 256 256 255 254 252 249 247 244 243 241 240 240 241 243 246 247 246 244 243 244 245 247 247 246 244 244 244 245 245 246 245 245 246 246 247 249 250 250 251 251 251 251 251 250 248 246 244 243 243 245 247 248 248 248 248 248 246 243 238 235 231 234 243 249 258 265 272 277 281
310 307 304 301 297 292 285 279 275 271 267 264 262 259 257 257 257 257 257 257 257 256 255 254 252 251 249 248 246 246 246 247 248 248 248 248 248 249 249 249 248 247 247 247 248 249 249 250 250 250 251 252 254 255 256 257 257 257 257 256 256 255 254 253 252 251 251 252 251 250 249 248 246 244 240 240 244 250 256 260 262 267 272 277 281
307 304 302 298 295 292 288 284 279 274 270 267 264 261 259 258 258 258 258 258 258 259 259 259 258 258 257 256 254 252 250 248 249 249 251 252 252 253 253 252 250 249 248 247 248 249 250 251 251 252 252 253 255 257 258 260 261 262 262 262 261 260 259 259 259 259 259 258 257 256 253 250 247 245 245 248 254 259 263 265 266 268 272 276 281
303 302 300 297 294 290 287 285 281 278 274 271 268 265 263 260 259 259 260 260 260 260 261 261 262 262 262 261 260 258 256 254 251 250 250 251 253 254 256 257 256 255 253 251 250 249 249 250 251 251 252 253 254 257 259 261 263 264 265 265 265 264 263 262 262 261 262 262 262 262 260 257 253 250 251 254 259 262 266 268 269 269 271 275 280
297 298 297 295 293 290 286 285 283 282 280 278 274 270 267 264 263 261 261 261 262 262 263 263 264 264 264 264 264 263 261 259 256 254 252 251 252 252 254 257 259 259 258 257 256 254 253 252 252 252 252 253 254 256 258 260 262 263 264 265 265 265 265 264 264 263 263 263 263 263 263 262 259 257 257 258 261 265 267 269 271 270 271 274 278
289 291 292 292 291 288 286 285 284 284 282 280 277 275 273 271 269 266 264 263 263 263 264 264 264 264 264 264 264 264 263 261 259 257 255 253 252 252 253 255 257 259 259 260 260 259 258 257 256 255 255 254 255 256 258 259 260 261 263 263 264 264 264 263 264 264 264 264 264 264 264 263 262 261 261 261 263 265 268 269 270 271 272 273 277
282 283 284 286 285 283 282 282 283 283 280 278 277 277 277 275 273 271 270 267 266 265 265 264 264 264 264 264 263 263 262 261 259 258 256 254 253 252 253 254 255 257 258 259 259 259 259 259 259 258 257 257 257 257 257 258 259 260 261 262 262 262 262 262 262 263 264 264 264 264 263 263 262 262 262 262 263 265 267 269 270 271 272 274 276
277 278 279 279 277 277 278 278 279 277 276 276 277 277 277 276 275 274 273 272 270 269 268 267 266 265 265 264 264 263 262 261 260 259 257 256 254 253 253 253 254 255 256 257 258 258 259 259 260 260 259 259 258 258 258 258 258 259 259 260 261 261 261 261 261 262 263 263 263 263 263 262 262 262 262 262 262 264 265 267 269 271 273 274 276
275 276 276 274 272 272 273 273 272 271 272 273 274 275 275 276 275 275 274 273 273 272 272 271 270 269 267 266 265 264 263 263 262 261 260 259 257 255 254 254 254 255 256 256 257 257 258 258 259 260 260 260 260 260 259 259 259 259 259 260 260 261 260 260 260 261 262 262 263 263 262 262 261 261 261 262 262 263 264 266 268 270 272 274 275
274 274 274 272 270 269 269 269 269 269 269 269 271 271 271 273 274 274 274 275 276 275 274 273 272 271 270 269 268 267 266 265 263 262 261 260 259 257 256 256 256 256 257 257 257 258 258 259 259 260 260 261 261 261 261 260 260 260 259 259 260 260 260 260 260 260 261 262 263 263 263 263 262 261 260 261 262 263 264 265 267 268 270 272 274
274 272 270 269 268 267 267 267 268 268 268 267 268 268 268 269 270 272 274 276 276 275 274 274 273 272 272 272 272 271 269 268 266 264 263 261 260 258 258 257 257 257 258 258 258 259 259 259 259 260 260 260 261 261 261 260 260 260 259 259 259 259 260 260 260 260 261 262 263 264 264 264 264 262 261 261 261 262 263 264 265 267 268 270 272
274 272 269 267 266 265 264 265 266 267 267 267 267 267 268 268 269 270 272 274 274 274 274 274 275 275 275 274 273 272 271 270 269 267 265 263 262 261 259 258 258 258 258 258 258 258 258 259 259 259 260 260 260 260 260 260 260 259 259 259 259 259 259 260 261 261 262 263 264 264 265 265 265 264 262 261 260 261 261 262 264 265 266 268 270
275 273 270 268 266 265 264 265 265 266 266 266 266 267 268 268 269 270 270 271 271 272 273 274 275 276 277 276 274 273 272 271 270 269 268 267 265 263 261 260 259 258 258 258 257 257 257 258 258 259 259 260 260 260 260 260 260 260 259 259 259 259 259 259 260 261 262 263 264 265 265 265 264 263 262 260 259 259 260 261 262 263 264 266 268
274 272 271 269 268 267 266 266 266 265 265 264 264 265 266 267 267 268 269 269 270 271 271 272 274 276 276 276 276 274 273 272 271 270 269 269 267 266 264 262 261 260 259 258 258 258 258 258 259 259 259 260 260 261 261 261 261 260 259 259 259 259 259 259 259 260 261 262 263 264 264 264 263 263 261 260 258 258 258 259 260 261 262 264 265
273 272 272 271 269 268 267 267 267 266 265 265 265 265 265 265 265 266 267 267 268 268 269 271 272 273 274 274 275 274 274 273 272 271 270 269 269 268 267 266 265 263 262 261 260 260 259 259 259 259 259 259 260 260 260 260 260 260 259 258 258 258 258 258 258 258 259 259 260 261 262 262 262 261 261 259 258 257 257 258 259 260 261 262 263
276 274 272 270 269 269 269 268 267 267 267 266 266 266 266 266 266 265 264 264 265 266 266 268 269 270 270 271 272 273 273 273 272 272 271 270 269 269 269 268 267 267 266 264 263 262 262 261 261 260 260 260 259 259 259 259 259 259 259 258 258 258 258 258 258 258 257 258 258 259 260 260 260 260 260 259 258 257 257 257 258 258 259 261 262
277 277 273 269 269 269 269 268 268 267 267 267 267 267 268 268 267 266 266 265 264 264 264 265 266 267 268 268 269 270 271 272 272 271 271 271 270 269 268 268 268 267 267 267 266 265 265 264 264 263 262 261 260 260 259 258 258 259 259 259 259 259 259 259 258 258 258 257 257 258 259 259 259 259 259 259 259 259 259 258 258 259 260 261 262
278 277 272 270 270 269 269 269 269 269 269 269 269 269 270 270 269 269 269 267 264 263 263 264 265 265 265 266 267 268 269 270 270 270 270 270 270 270 269 268 267 267 266 266 267 267 267 267 266 265 264 263 262 260 260 259 259 258 259 259 259 259 260 260 260 259 259 258 258 258 258 258 258 258 258 259 260 261 261 261 261 262 262 262 263
275 274 273 272 270 268 268 268 270 271 272 272 271 271 272 271 270 270 269 267 266 264 263 263 263 264 264 264 265 265 266 267 268 269 270 270 270 269 269 268 267 266 265 265 265 266 266 266 266 266 265 264 263 263 262 262 261 260 260 261 261 261 262 262 262 261 260 260 259 259 258 258 258 258 259 260 260 261 262 263 263 264 264 264 264
269 271 272 272 270 269 269 269 270 271 272 273 273 273 273 272 270 270 270 269 267 266 264 264 264 264 264 264 264 264 264 265 267 268 269 269 268 268 268 267 266 266 265 264 264 264 265 265 266 266 266 266 266 266 266 266 266 266 266 266 266 265 265 264 264 263 262 261 261 260 259 259 259 259 259 260 261 262 262 263 264 264 265 266 267
265 269 271 271 272 272 272 271 272 272 272 271 272 272 272 272 273 273 273 271 269 267 265 264 263 263 263 264 264 263 263 264 265 266 267 268 268 267 266 266 265 265 264 263 262 263 263 264 265 266 267 267 268 268 269 270 270 271 271 270 269 269 268 267 266 265 264 263 263 262 261 261 260 260 260 261 262 262 263 263 264 265 266 267 268
265 269 271 273 274 274 273 273 274 273 273 271 270 271 272 274 275 276 274 273 272 269 265 263 262 262 263 263 263 263 262 263 264 265 266 267 267 266 265 265 264 264 263 262 261 262 262 263 264 266 266 267 268 269 270 271 271 272 272 272 272 271 270 270 269 268 267 266 265 264 263 263 263 262 262 262 262 263 263 263 264 265 266 267 267
265 268 271 273 273 272 272 273 274 275 274 274 273 272 272 273 275 276 276 275 273 270 267 264 262 261 262 262 263 264 264 263 264 264 265 266 267 268 267 266 264 263 262 261 261 261 261 262 263 264 265 266 267 268 269 270 271 272 272 273 273 272 272 272 272 272 271 270 268 267 266 266 265 265 264 263 263 263 263 263 264 264 265 266 266
267 266 269 271 271 272 272 273 274 275 276 276 275 274 273 273 274 275 275 274 272 270 267 264 261 261 261 263 264 264 265 265 265 266 267 267 268 269 269 268 266 264 262 261 260 260 260 260 261 262 263 264 265 267 268 270 271 272 273 273 274 273 273 273 274 274 273 273 272 271 270 269 268 268 267 267 266 265 265 264 264 265 265 265 266
272 269 268 270 271 272 272 273 274 275 275 276 276 277 277 275 274 273 273 272 270 267 266 264 262 262 264 265 266 267 268 268 269 270 270 270 270 270 270 270 268 266 264 262 260 259 258 258 259 261 262 263 265 266 268 270 272 273 274 274 274 274 273 273 274 275 275 274 273 273 272 271 271 270 270 269 269 268 267 267 266 266 266 266 266
280 276 273 272 272 272 273 274 274 274 274 275 276 276 276 276 275 273 272 271 268 265 265 267 266 265 267 267 269 271 273 274 274 273 272 271 270 270 270 270 270 269 266 262 260 258 257 258 259 260 260 262 264 267 269 271 273 274 274 275 274 274 273 273 274 274 275 274 273 273 272 271 271 270 270 270 269 269 268 268 268 267 267 266 266
286 283 279 277 275 274 274 274 272 271 271 272 273 273 273 274 273 272 271 269 266 266 267 269 269 268 268 268 270 272 274 275 275 274 272 270 269 268 268 268 268 267 264 261 259 258 257 258 258 258 259 261 264 266 268 270 271 272 273 274 274 273 273 273 273 274 274 274 273 272 271 271 271 271 270 270 269 269 269 269 268 268 267 266 266
287 285 283 281 279 278 276 274 272 270 269 268 269 270 271 270 269 269 269 267 267 267 268 268 268 269 269 270 271 272 272 272 272 272 271 270 269 268 267 266 265 263 261 259 257 257 256 257 257 257 258 260 263 265 266 268 269 270 272 272 273 273 273 273 273 273 274 274 273 273 272 272 272 272 271 271 271 270 270 270 269 269 268 267 267
286 285 284 283 282 281 279 276 273 270 269 268 267 268 268 268 267 266 266 266 267 267 266 266 267 269 270 270 271 270 268 268 270 270 270 269 269 267 266 265 263 262 260 258 256 256 256 256 256 256 257 259 262 264 265 266 267 269 270 271 272 272 272 271 272 272 272 273 273 273 273 274 274 274 273 273 272 272 271 271 271 270 269 268 268
287 287 286 284 283 282 279 277 274 272 270 268 267 266 267 267 267 266 264 264 266 266 266 266 267 267 267 267 267 266 265 266 269 271 271 270 269 267 266 265 263 262 261 260 258 257 257 256 256 256 257 259 261 264 265 265 266 267 269 270 270 271 271 271 271 271 271 271 272 272 272 273 274 274 274 274 274 273 272 272 271 271 270 270 269
289 288 286 285 284 282 280 278 275 273 270 268 267 266 266 266 266 266 265 264 264 265 265 265 265 265 264 264 264 264 265 267 270 272 272 270 268 267 266 266 265 263 263 262 261 259 258 257 256 257 257 259 262 264 265 265 265 266 268 269 270 271 271 271 271 271 271 271 271 270 270 271 272 272 273 273 273 273 273 272 272 271 271 271 270
289 289 288 287 285 282 281 280 278 276 273 270 268 267 266 266 265 265 265 265 264 264 264 264 263 262 262 262 263 265 267 268 270 271 272 270 268 266 265 265 265 265 264 264 263 260 258 257 256 256 258 260 262 264 265 265 266 266 267 269 270 271 272 272 272 271 270 270 269 268 268 268 269 270 271 272 273 273 273 272 272 271 271 270 270
288 288 289 289 288 285 282 281 280 278 276 273 270 268 268 268 268 267 266 265 265 264 264 263 262 262 261 262 263 265 266 268 269 270 270 268 267 265 265 264 264 264 264 263 261 259 257 256 256 257 259 261 262 265 266 267 267 267 268 269 270 271 273 273 273 271 270 269 268 268 268 268 268 269 270 271 272 273 273 272 271 271 271 270 270
280 282 284 286 287 286 285 283 281 280 278 276 273 271 271 271 271 270 270 269 267 265 264 263 263 263 262 262 263 264 265 267 267 268 267 267 265 264 264 264 263 261 259 259 258 257 257 257 258 259 261 262 264 266 268 268 268 267 268 268 270 272 274 275 274 274 272 271 270 270 270 270 270 271 270 270 271 272 273 273 272 272 271 271 270
276 274 274 276 279 281 281 281 280 279 279 278 276 273 272 272 272 271 270 269 267 266 265 264 264 264 265 265 264 265 265 266 266 266 265 265 264 263 262 262 261 259 258 258 258 259 259 260 261 261 262 264 265 266 266 266 266 266 266 267 268 271 273 275 275 275 275 274 273 273 273 273 273 273 273 272 271 271 271 272 272 272 271 271 270
284 279 275 272 272 273 274 275 274 274 274 274 274 272 271 271 271 270 269 268 266 266 266 266 265 265 266 266 266 266 265 265 264 264 263 263 262 261 261 260 260 259 258 258 259 260 261 261 261 262 262 264 264 264 264 264 264 264 264 265 267 269 272 274 275 276 276 275 275 274 274 274 274 274 274 274 273 272 270 270 270 271 271 271 270
290 287 284 279 274 271 271 270 269 268 267 267 267 267 267 268 268 268 268 267 267 266 266 266 265 265 266 266 266 266 265 264 264 263 263 263 262 261 260 259 258 257 257 258 258 258 259 259 260 261 262 263 263 263 263 263 263 263 263 264 266 268 270 272 274 275 276 276 275 275 274 274 274 274 274 274 273 273 272 271 270 270 270 270 270
Height
5871 5871 5871 5871 5870 5870 5870 5870 5870 5870 5870 5870 5870 5871 5871 5871 5872 5872 5873 5873 5874 5875 5876 5876 5877 5877 5878 5878 5878 5879 5879 5880 5881 5881 5882 5883 5884 5885 5886 5886 5887 5887 5888 5888 5888 5888 5889 5889 5890 5890 5891 5892 5893 5893 5894 5894 5895 5895 5896 5896 5896 5897 5898 5898 5899 5899 5899 5900 5900 5900 5900 5901 5901 5902 5902 5902 5903 5903 5903 5902 5902 5902 5902 5902 5902
5871 5871 5871 5871 5871 5871 5871 5871 5871 5871 5871 5871 5871 5871 5872 5872 5872 5873 5873 5874 5874 5875 5875 5876 5876 5877 5877 5877 5878 5878 5879 5880 5880 5881 5881 5882 5883 5884 5885 5885 5886 5887 5887 5887 5887 5887 5888 5888 5889 5890 5891 5891 5892 5892 5893 5893 5894 5894 5895 5895 5896 5896 5897 5897 5898 5898 5898 5899 5899 5899 5899 5900 5900 5901 5901 5902 5902 5902 5902 5901 5901 5901 5901 5901 5901
5870 5871 5871 5871 5871 5871 5871 5871 5871 5871 5871 5871 5871 5872 5872 5873 5873 5873 5874 5874 5875 5875 5876 5876 5876 5877 5877 5877 5877 5878 5878 5879 5879 5880 5880 5881 5882 5883 5884 5884 5885 5886 5886 5886 5886 5886 5887 5888 5888 5889 5890 5890 5891 5891 5892 5892 5893 5893 5894 5894 5895 5895 5895 5896 5896 5897 5897 5897 5898 5898 5898 5899 5899 5900 5900 5901 5901 5901 5901 5901 5900 5900 5900 5900 5901
5870 5870 5870 5871 5871 5871 5871 5871 5872 5872 5872 5872 5872 5872 5873 5873 5873 5874 5874 5875 5875 5876 5876 5876 5877 5877 5877 5877 5877 5877 5878 5878 5879 5879 5880 5881 5881 5882 5883 5884 5884 5884 5884 5884 5885 5885 5886 5886 5887 5888 5888 5889 5890 5890 5891 5891 5892 5892 5893 5893 5894 5894 5894 5895 5895 5895 5895 5896 5896 5897 5897 5898 5898 5899 5899 5900 5900 5900 5900 5900 5900 5899 5899 5900 5900
5869 5869 5870 5870 5870 5871 5871 5871 5872 5872 5872 5872 5872 5873 5873 5873 5874 5874 5874 5875 5875 5876 5876 5876 5877 5877 5877 5877 5877 5877 5878 5878 5878 5879 5880 5880 5881 5881 5882 5882 5883 5883 5883 5884 5884 5884 5884 5885 5885 5886 5887 5888 5889 5889 5890 5891 5891 5891 5892 5892 5893 5893 5893 5893 5894 5894 5894 5895 5895 5895 5896 5896 5897 5898 5898 5899 5899 5899 5899 5899 5899 5899 5899 5899 5899
5868 5869 5869 5869 5869 5870 5870 5871 5871 5871 5872 5872 5872 5873 5873 5874 5874 5874 5874 5874 5875 5875 5876 5876 5877 5877 5877 5877 5877 5878 5878 5878 5878 5879 5879 5880 5880 5880 5881 5881 5882 5882 5882 5883 5883 5883 5883 5883 5884 5885 5886 5887 5887 5888 5889 5889 5890 5890 5891 5891 5892 5892 5892 5892 5893 5893 5893 5894 5894 5894 5895 5895 5896 5897 5897 5897 5897 5897 5898 5898 5898 5898 5898 5898 5898
5867 5868 5868 5868 5868 5869 5869 5870 5870 5871 5871 5872 5872 5872 5873 5873 5874 5874 5874 5875 5875 5875 5875 5876 5876 5876 5876 5877 5877 5877 5877 5878 5878 5878 5879 5879 5879 5880 5880 5880 5881 5881 5881 5882 5882 5882 5882 5883 5883 5884 5885 5886 5887 5887 5888 5888 5889 5890 5890 5890 5890 5890 5891 5891 5891 5892 5892 5893 5893 5893 5894 5894 5895 5895 5896 5896 5896 5896 5896 5897 5897 5897 5897 5897 5897
5866 5867 5867 5867 5868 5868 5868 5869 5869 5870 5870 5871 5871 5872 5872 5873 5873 5874 5874 5874 5875 5875 5875 5875 5875 5876 5876 5876 5876 5876 5876 5877 5877 5878 5878 5878 5879 5879 5879 5879 5880 5880 5880 5881 5881 5881 5881 5882 5883 5883 5884 5885 5886 5886 5887 5888 5888 5889 5889 5889 5889 5889 5890 5890 5890 5890 5891 5891 5892 5892 5893 5893 5894 5894 5894 5895 5895 5895 5895 5895 5895 5895 5895 5896 5896
5865 5865 5866 5866 5866 5867 5867 5868 5868 5869 5869 5870 5870 5871 5871 5872 5872 5873 5873 5874 5874 5874 5874 5875 5875 5875 5875 5875 5875 5875 5876 5876 5876 5877 5877 5877 5877 5878 5878 5878 5879 5879 5879 5880 5880 5880 5881 5881 5882 5883 5884 5884 5885 5885 5886 5887 5887 5887 5888 5888 5888 5888 5889 5889 5889 5889 5889 5890 5890 5891 5891 5892 5892 5893 5893 5893 5893 5893 5894 5894 5894 5894 5894 5895 5895
5865 5864 5864 5865 5865 5865 5866 5866 5867 5867 5868 5869 5869 5870 5870 5871 5871 5872 5872 5873 5873 5873 5873 5874 5874 5874 5874 5875 5875 5875 5875 5875 5876 5876 5876 5876 5876 5877 5877 5877 5877 5878 5878 5878 5879 5879 5880 5881 5881 5882 5883 5883 5884 5884 5885 5885 5886 5886 5886 5887 5887 5887 5888 5888 5888 5888 5888 5888 5889 5889 5890 5891 5891 5892 5892 5892 5892 5892 5893 5893 5894 5894 5894 5894 5894
5864 5864 5864 5864 5864 5864 5864 5865 5865 5866 5866 5867 5868 5868 5869 5869 5870 5870 5871 5871 5872 5872 5872 5872 5873 5873 5873 5874 5874 5874 5875 5875 5875 5875 5875 5875 5875 5875 5876 5876 5876 5877 5877 5877 5878 5879 5879 5880 5881 5881 5882 5882 5883 5883 5884 5884 5884 5885 5885 5885 5885 5886 5886 5886 5887 5887 5887 5887 5888 5888 5889 5889 5890 5890 5891 5891 5891 5891 5892 5892 5892 5893 5893 5893 5894
5863 5863 5863 5863 5863 5863 5863 5863 5864 5864 5865 5865 5866 5867 5867 5868 5868 5869 5869 5870 5870 5871 5871 5871 5872 5872 5873 5873 5873 5873 5873 5874 5874 5874 5874 5874 5874 5874 5875 5875 5875 5876 5876 5877 5877 5878 5878 5879 5880 5880 5881 5881 5882 5882 5882 5883 5883 5884 5884 5884 5884 5884 5885 5885 5885 5886 5886 5886 5886 5887 5887 5888 5888 5889 5889 5889 5889 5890 5890 5891 5891 5891 5892 5892 5893
5863 5863 5862 5862 5862 5862 5862 5862 5862 5862 5863 5863 5864 5865 5865 5866 5867 5867 5868 5868 5869 5869 5870 5870 5871 5871 5872 5872 5872 5872 5872 5873 5873 5873 5873 5873 5873 5874 5874 5874 5874 5875 5875 5875 5876 5877 5877 5878 5878 5879 5880 5880 5880 5881 5881 5881 5882 5882 5883 5883 5883 5883 5883 5883 5884 5884 5884 5885 5885 5885 5886 5886 5886 5887 5888 5888 5888 5889 5889 5890 5890 5890 5891 5891 5892
5863 5862 5862 5861 5861 5861 5861 5861 5861 5861 5861 5861 5862 5863 5863 5864 5865 5865 5866 5867 5867 5868 5868 5869 5869 5870 5870 5871 5871 5871 5871 5871 5872 5872 5872 5872 5873 5873 5873 5873 5873 5874 5874 5874 5875 5875 5876 5876 5877 5877 5878 5878 5879 5879 5879 5880 5880 5881 5881 5881 5882 5882 5882 5882 5882 5882 5883 5883 5883 5884 5884 5885 5885 5885 5886 5886 5887 5887 5888 5888 5888 5889 5889 5890 5890
5862 5862 5861 5861 5860 5860 5860 5860 5860 5860 5860 5860 5860 5861 5861 5862 5863 5863 5864 5865 5865 5866 5866 5867 5867 5868 5868 5869 5869 5869 5869 5870 5870 5870 5871 5871 5871 5872 5872 5872 5872 5873 5873 5873 5873 5874 5874 5874 5875 5875 5876 5876 5877 5877 5878 5878 5878 5879 5879 5879 5880 5880 5880 5880 5881 5881 5881 5881 5882 5882 5882 5883 5883 5884 5884 5885 5885 5886 5886 5887 5887 5887 5888 5888 5888
5861 5861 5861 5860 5860 5859 5859 5859 5859 5859 5859 5859 5859 5859 5859 5860 5860 5861 5862 5862 5863 5864 5864 5865 5865 5866 5866 5867 5867 5867 5868 5868 5868 5869 5869 5869 5870 5870 5870 5871 5871 5871 5871 5871 5872 5872 5872 5873 5873 5873 5874 5874 5875 5875 5875 5876 5876 5877 5877 5877 5878 5878 5878 5878 5879 5879 5879 5880 5880 5880 5881 5881 5881 5882 5882 5883 5883 5884 5884 5885 5885 5886 5886 5886 5887
5860 5860 5860 5860 5859 5859 5858 5858 5858 5858 5858 5857 5857 5858 5858 5858 5858 5859 5859 5860 5861 5861 5862 5863 5863 5863 5864 5864 5865 5865 5865 5866 5866 5867 5867 5867 5868 5868 5868 5869 5869 5869 5869 5869 5870 5870 5871 5871 5871 5871 5872 5872 5872 5873 5873 5874 5874 5874 5875 5875 5875 5876 5876 5876 5876 5877 5877 5878 5878 5879 5879 5879 5880 5880 5881 5881 5881 5882 5882 5883 5884 5884 5884 5884 5885
5859 5859 5859 5858 5858 5858 5858 5858 5857 5857 5857 5856 5856 5856 5856 5856 5857 5857 5857 5858 5858 5859 5860 5860 5861 5861 5861 5862 5862 5863 5863 5863 5864 5864 5865 5865 5865 5866 5866 5866 5867 5867 5867 5867 5868 5868 5868 5869 5869 5869 5870 5870 5870 5870 5871 5871 5871 5872 5872 5872 5873 5873 5873 5874 5874 5875 5875 5876 5876 5877 5877 5878 5878 5878 5879 5879 5879 5880 5880 5881 5881 5882 5882 5882 5883
5858 5858 5857 5857 5857 5857 5857 5857 5856 5856 5856 5856 5855 5855 5855 5855 5855 5855 5856 5856 5856 5857 5857 5858 5858 5858 5859 5859 5860 5860 5860 5861 5861 5862 5862 5862 5863 5863 5863 5864 5864 5864 5865 5865 5865 5866 5866 5866 5867 5867 5867 5867 5868 5868 5868 5869 5869 5869 5870 5870 5870 5871 5871 5871 5872 5872 5873 5873 5874 5874 5875 5875 5876 5876 5877 5877 5877 5878 5878 5879 5879 5880 5880 5880 5881
5856 5856 5856 5856 5855 5855 5855 5855 5855 5855 5855 5854 5854 5854 5854 5854 5854 5854 5854 5854 5854 5855 5855 5855 5856 5856 5856 5857 5857 5857 5858 5858 5858 5859 5859 5859 5860 5860 5861 5861 5862 5862 5862 5862 5863 5863 5863 5864 5864 5864 5864 5865 5865 5865 5866 5866 5866 5867 5867 5868 5868 5868 5869 5869 5869 5870 5870 5871 5871 5872 5872 5873 5873 5874 5874 5875 5875 5875 5876 5876 5877 5877 5878 5878 5878
5854 5854 5854 5854 5854 5853 5853 5853 5853 5853 5853 5853 5853 5853 5853 5853 5852 5852 5852 5853 5853 5853 5853 5853 5853 5854 5854 5854 5854 5854 5855 5855 5856 5856 5856 5857 5857 5857 5858 5858 5859 5859 5860 5860 5860 5861 5861 5861 5861 5861 5862 5862 5862 5862 5863 5863 5864 5864 5865 5865 5866 5866 5866 5867 5867 5867 5868 5868 5869 5869 5870 5870 5871 5871 5872 5872 5873 5873 5873 5874 5874 5875 5875 5876 5876
5852 5852 5852 5852 5851 5851 5851 5851 5851 5851 5851 5851 5851 5851 5851 5851 5851 5851 5851 5851 5851 5851 5851 5851 5851 5851 5852 5852 5852 5852 5852 5852 5853 5853 5853 5854 5854 5855 5855 5856 5856 5857 5857 5857 5857 5858 5858 5858 5858 5858 5859 5859 5859 5860 5860 5861 5861 5861 5862 5862 5863 5863 5864 5864 5865 5865 5865 5866 5866 5866 5867 5867 5868 5868 5869 5869 5870 5870 5871 5871 5871 5872 5872 5873 5873
5850 5850 5850 5850 5849 5849 5848 5849 5849 5849 5849 5849 5849 5849 5849 5849 5849 5849 5849 5849 5849 5849 5849 5849 5849 5849 5850 5850 5850 5850 5850 5850 5850 5850 5850 5851 5851 5852 5852 5853 5853 5854 5854 5854 5854 5855 5855 5855 5855 5855 5856 5856 5856 5857 5857 5858 5858 5858 5859 5859 5860 5860 5861 5861 5862 5862 5862 5863 5863 5864 5864 5864 5865 5865 5866 5866 5866 5867 5867 5868 5868 5869 5869 5870 5870
5847 5847 5847 5847 5847 5846 5846 5846 5846 5846 5846 5847 5847 5847 5847 5847 5846 5846 5846 5847 5847 5847 5847 5847 5847 5847 5847 5847 5847 5847 5847 5847 5847 5847 5848 5848 5848 5848 5849 5850 5850 5850 5851 5851 5851 5851 5852 5852 5852 5852 5853 5853 5853 5854 5854 5854 5855 5855 5856 5856 5857 5857 5857 5858 5858 5859 5859 5859 5860 5860 5861 5861 5861 5862 5862 5862 5863 5863 5864 5864 5865 5865 5866 5866 5867
5844 5844 5844 5844 5844 5843 5843 5843 5843 5843 5844 5844 5844 5844 5844 5844 5844 5844 5844 5844 5844 5844 5845 5845 5845 5845 5845 5845 5845 5845 5845 5845 5845 5845 5845 5845 5845 5846 5846 5846 5847 5847 5847 5848 5848 5848 5848 5849 5849 5849 5850 5850 5850 5851 5851 5851 5851 5852 5852 5853 5853 5854 5854 5854 5855 5855 5856 5856 5856 5857 5857 5857 5858 5858 5859 5859 5859 5860 5860 5861 5861 5862 5862 5863 5864
5840 5840 5840 5840 5840 5840 5840 5840 5840 5840 5841 5841 5841 5841 5841 5841 5841 5842 5842 5842 5841 5841 5841 5842 5842 5842 5842 5842 5842 5842 5842 5842 5842 5842 5842 5842 5843 5843 5843 5843 5844 5844 5844 5844 5845 5845 5845 5845 5846 5846 5846 5847 5847 5847 5847 5848 5848 5848 5849 5849 5849 5850 5850 5850 5851 5851 5852 5852 5853 5853 5853 5854 5854 5855 5855 5856 5856 5856 5857 5857 5858 5858 5859 5859 5860
5836 5836 5835 5836 5836 5836 5836 5836 5836 5837 5837 5837 5837 5838 5838 5838 5838 5839 5839 5838 5838 5838 5838 5838 5838 5839 5839 5839 5839 5839 5839 5839 5839 5839 5839 5839 5840 5840 5840 5840 5840 5841 5841 5841 5841 5841 5841 5841 5842 5842 5842 5843 5843 5843 5843 5844 5844 5844 5845 5845 5845 5846 5846 5846 5847 5847 5848 5848 5849 5849 5849 5850 5850 5851 5851 5852 5852 5852 5853 5853 5854 5855 5855 5856 5856
5833 5832 5831 5831 5831 5831 5832 5832 5832 5833 5833 5833 5834 5834 5834 5835 5835 5835 5835 5835 5835 5835 5835 5835 5835 5835 5835 5835 5835 5835 5835 5835 5835 5836 5836 5836 5836 5836 5837 5837 5837 5837 5837 5837 5837 5837 5837 5837 5838 5838 5838 5838 5839 5839 5839 5839 5840 5840 5840 5841 5841 5841 5842 5842 5842 5843 5843 5844 5844 5845 5845 5846 5846 5847 5847 5848 5848 5849 5849 5850 5850 5851 5851 5852 5853
5830 5828 5828 5827 5826 5826 5827 5828 5828 5828 5829 5829 5830 5830 5830 5830 5831 5831 5831 5831 5831 5831 5831 5832 5832 5832 5832 5832 5832 5832 5832 5832 5832 5832 5832 5832 5832 5833 5833 5833 5833 5833 5833 5833 5834 5834 5834 5834 5834 5834 5834 5834 5835 5835 5835 5835 5836 5836 5836 5837 5837 5837 5837 5838 5838 5839 5839 5839 5840 5841 5841 5842 5842 5843 5843 5843 5844 5844 5845 5845 5846 5847 5847 5848 5848
5827 5825 5825 5823 5822 5822 5823 5823 5823 5823 5824 5825 5825 5825 5826 5826 5826 5826 5826 5827 5827 5827 5827 5828 5828 5828 5828 5828 5828 5828 5828 5828 5828 5829 5829 5829 5829 5829 5829 5829 5829 5829 5829 5829 5830 5830 5830 5830 5830 5830 5830 5830 5831 5831 5831 5832 5832 5832 5832 5833 5833 5833 5833 5834 5834 5834 5835 5835 5836 5836 5837 5837 5838 5838 5839 5839 5840 5840 5841 5841 5842 5842 5842 5843 5844
5823 5822 5821 5820 5819 5819 5818 5818 5818 5818 5819 5820 5821 5821 5822 5822 5822 5822 5822 5823 5823 5823 5823 5824 5824 5824 5824 5824 5825 5825 5825 5825 5825 5825 5825 5825 5825 5825 5825 5825 5825 5825 5825 5826 5826 5826 5826 5826 5826 5826 5826 5826 5827 5827 5827 5827 5827 5828 5828 5828 5828 5829 5829 5829 5829 5830 5830 5831 5831 5832 5832 5833 5833 5833 5834 5835 5835 5836 5836 5837 5837 5837 5838 5839 5839
5819 5819 5817 5816 5817 5815 5814 5814 5814 5814 5815 5816 5815 5816 5817 5817 5817 5818 5818 5818 5818 5819 5819 5819 5820 5820 5820 5821 5821 5821 5821 5821 5821 5821 5821 5821 5821 5821 5821 5821 5821 5821 5821 5822 5822 5822 5822 5822 5822 5822 5822 5822 5822 5822 5823 5823 5823 5823 5824 5824 5824 5824 5825 5825 5825 5825 5826 5826 5826 5827 5827 5828 5828 5829 5829 5830 5831 5831 5832 5832 5832 5833 5833 5834 5835
5815 5814 5813 5813 5813 5811 5811 5811 5810 5811 5811 5811 5811 5812 5813 5813 5813 5813 5813 5814 5814 5815 5815 5815 5815 5815 5816 5816 5817 5817 5817 5817 5817 5817 5817 5818 5817 5817 5817 5817 5817 5817 5818 5818 5818 5818 5818 5818 5818 5818 5818 5818 5818 5818 5819 5819 5819 5819 5819 5819 5820 5820 5820 5821 5821 5821 5821 5822 5822 5822 5823 5823 5824 5824 5825 5825 5826 5826 5827 5827 5828 5829 5829 5830 5830
5811 5809 5809 5809 5808 5807 5808 5808 5807 5808 5807 5807 5807 5808 5808 5808 5809 5809 5809 5810 5810 5811 5811 5811 5811 5811 5811 5812 5812 5813 5813 5813 5813 5813 5813 5814 5814 5813 5813 5813 5813 5813 5814 5814 5814 5814 5814 5814 5814 5814 5814 5814 5814 5814 5814 5814 5814 5815 5815 5815 5815 5816 5816 5817 5817 5817 5817 5818 5818 5818 5819 5819 5819 5820 5820 5821 5821 5822 5822 5823 5824 5824 5825 5825 5826
5806 5805 5805 5804 5803 5804 5804 5804 5804 5804 5804 5804 5803 5803 5803 5804 5804 5805 5806 5806 5806 5807 5807 5807 5806 5806 5807 5807 5808 5808 5808 5809 5809 5809 5809 5810 5810 5809 5809 5809 5809 5809 5809 5810 5810 5810 5810 5810 5810 5810 5810 5810 5810 5810 5810 5810 5810 5810 5810 5811 5811 5812 5812 5812 5812 5813 5813 5813 5813 5814 5814 5815 5815 5815 5816 5816 5816 5817 5818 5818 5819 5820 5820 5821 5821
5802 5802 5801 5800 5800 5800 5800 5800 5800 5800 5800 5799 5799 5799 5799 5800 5801 5801 5802 5802 5802 5803 5802 5802 5802 5802 5802 5803 5803 5803 5804 5804 5804 5805 5805 5805 5805 5805 5805 5805 5805 5805 5805 5805 5805 5806 5806 5806 5806 5806 5806 5806 5806 5806 5806 5806 5806 5806 5806 5806 5807 5807 5807 5807 5807 5808 5808 5808 5809 5809 5810 5810 5810 5811 5811 5811 5812 5812 5813 5813 5814 5815 5815 5816 5816
5797 5797 5797 5796 5796 5796 5796 5796 5796 5796 5795 5795 5795 5795 5795 5796 5797 5797 5798 5798 5798 5799 5798 5798 5798 5798 5798 5798 5798 5799 5800 5800 5800 5800 5801 5801 5801 5801 5801 5801 5801 5801 5801 5801 5801 5802 5802 5802 5802 5802 5802 5802 5802 5802 5802 5802 5801 5801 5801 5802 5802 5802 5802 5802 5802 5803 5803 5803 5804 5804 5805 5805 5805 5805 5806 5806 5807 5808 5808 5808 5809 5809 5810 5810 5811
5791 5792 5792 5792 5792 5792 5792 5792 5792 5791 5791 5791 5790 5790 5791 5792 5792 5793 5794 5794 5795 5795 5794 5794 5794 5794 5794 5794 5794 5795 5795 5796 5796 5796 5796 5797 5797 5797 5797 5797 5797 5797 5797 5797 5798 5798 5798 5797 5798 5798 5798 5798 5797 5797 5797 5797 5797 5797 5797 5797 5797 5797 5797 5797 5797 5797 5798 5798 5799 5799 5799 5800 5800 5800 5801 5801 5802 5802 5803 5803 5803 5804 5804 5805 5805
5786 5786 5787 5787 5788 5788 5788 5789 5789 5788 5787 5787 5787 5786 5787 5788 5788 5789 5789 5790 5791 5790 5789 5790 5790 5790 5791 5790 5790 5791 5791 5791 5792 5792 5792 5792 5792 5792 5792 5793 5793 5793 5793 5794 5794 5793 5793 5793 5794 5794 5794 5793 5793 5793 5793 5792 5792 5792 5792 5792 5792 5792 5792 5792 5792 5792 5792 5793 5793 5794 5794 5794 5795 5795 5795 5796 5796 5797 5797 5798 5798 5798 5799 5799 5799
5781 5781 5782 5783 5783 5783 5784 5786 5786 5784 5783 5783 5783 5783 5783 5783 5783 5784 5785 5785 5785 5785 5785 5785 5786 5787 5787 5786 5786 5787 5787 5787 5787 5787 5787 5787 5787 5787 5787 5788 5788 5789 5789 5789 5789 5788 5789 5789 5790 5790 5789 5789 5788 5788 5788 5788 5787 5787 5787 5787 5787 5787 5787 5787 5787 5787 5787 5788 5788 5788 5789 5789 5789 5789 5790 5790 5791 5791 5792 5792 5792 5793 5793 5793 5793
5778 5777 5777 5777 5778 5778 5780 5782 5781 5780 5780 5780 5779 5779 5779 5779 5778 5779 5779 5779 5779 5780 5781 5781 5782 5782 5782 5782 5782 5782 5782 5782 5781 5781 5781 5781 5781 5781 5782 5783 5783 5783 5784 5783 5783 5783 5784 5785 5785 5785 5784 5784 5784 5784 5783 5783 5782 5782 5782 5782 5781 5781 5782 5782 5782 5782 5782 5782 5783 5783 5783 5784 5784 5784 5784 5784 5785 5785 5786 5786 5787 5787 5787 5787 5787
5773 5773 5773 5773 5773 5774 5775 5776 5776 5776 5776 5775 5775 5774 5774 5774 5773 5774 5773 5773 5774 5775 5776 5776 5776 5777 5777 5778 5778 5777 5777 5776 5775 5775 5775 5775 5776 5776 5777 5777 5777 5777 5777 5777 5778 5778 5779 5780 5780 5780 5779 5779 5779 5779 5779 5778 5777 5777 5777 5776 5776 5776 5776 5776 5776 5776 5777 5777 5777 5778 5778 5778 5779 5779 5779 5779 5779 5780 5780 5781 5781 5782 5782 5781 5782
5769 5768 5768 5769 5769 5769 5770 5770 5770 5771 5771 5771 5770 5770 5769 5768 5768 5768 5768 5767 5768 5769 5769 5770 5771 5772 5772 5772 5772 5771 5770 5770 5769 5769 5769 5770 5770 5771 5771 5771 5771 5772 5772 5772 5772 5773 5774 5775 5774 5774 5774 5774 5774 5774 5773 5773 5772 5772 5772 5771 5771 5771 5771 5771 5771 5771 5771 5772 5772 5773 5773 5773 5773 5774 5774 5774 5774 5774 5775 5775 5776 5776 5776 5776 5776
5765 5764 5763 5764 5765 5765 5765 5765 5765 5765 5765 5765 5765 5765 5764 5763 5763 5763 5762 5762 5762 5763 5763 5764 5765 5766 5766 5765 5765 5764 5763 5763 5764 5764 5764 5765 5765 5765 5765 5766 5766 5766 5766 5766 5767 5768 5769 5769 5769 5769 5769 5769 5768 5768 5768 5768 5768 5767 5767 5766 5766 5766 5766 5766 5766 5766 5766 5767 5767 5768 5768 5768 5768 5769 5769 5769 5769 5769 5769 5770 5770 5770 5771 5771 5771
5761 5760 5759 5759 5760 5760 5760 5760 5760 5760 5759 5759 5759 5759 5759 5759 5758 5758 5757 5757 5757 5756 5756 5758 5758 5759 5758 5758 5757 5757 5757 5758 5759 5759 5759 5759 5759 5759 5760 5760 5760 5760 5761 5761 5762 5763 5763 5763 5763 5763 5763 5763 5763 5763 5763 5763 5763 5762 5762 5761 5761 5761 5761 5761 5761 5761 5761 5762 5762 5763 5763 5763 5763 5763 5763 5763 5763 5764 5764 5764 5764 5764 5765 5765 5766
5756 5756 5754 5754 5754 5755 5755 5755 5755 5755 5754 5754 5753 5753 5753 5753 5753 5752 5752 5751 5751 5750 5751 5751 5751 5751 5751 5751 5751 5751 5752 5753 5753 5753 5753 5753 5753 5753 5754 5754 5754 5755 5755 5756 5756 5757 5758 5757 5757 5757 5758 5758 5758 5758 5758 5758 5758 5757 5757 5756 5756 5755 5755 5756 5756 5756 5756 5756 5757 5757 5758 5758 5758 5758 5758 5758 5758 5758 5759 5759 5758 5759 5759 5759 5760
5751 5751 5750 5749 5749 5749 5749 5749 5749 5749 5749 5749 5748 5748 5747 5747 5747 5747 5747 5746 5746 5745 5745 5744 5744 5744 5744 5744 5745 5745 5746 5747 5747 5747 5747 5747 5747 5747 5747 5748 5748 5749 5750 5750 5751 5751 5751 5751 5751 5752 5753 5753 5752 5752 5752 5753 5752 5752 5752 5751 5750 5750 5750 5750 5750 5750 5750 5750 5751 5751 5751 5752 5752 5752 5752 5752 5752 5752 5752 5753 5753 5753 5753 5754 5754
5747 5746 5745 5744 5743 5743 5742 5742 5742 5742 5743 5743 5743 5743 5742 5742 5742 5742 5741 5741 5741 5740 5739 5738 5738 5738 5738 5738 5739 5739 5740 5740 5740 5740 5740 5740 5740 5741 5741 5742 5742 5743 5743 5744 5744 5744 5744 5745 5746 5747 5747 5746 5747 5747 5747 5747 5746 5746 5746 5745 5745 5744 5744 5744 5744 5744 5744 5745 5745 5745 5745 5745 5745 5746 5746 5746 5746 5746 5746 5747 5747 5747 5747 5748 5748
5741 5740 5739 5738 5738 5737 5736 5736 5735 5735 5735 5736 5737 5737 5737 5737 5737 5736 5736 5735 5734 5734 5733 5733 5733 5733 5733 5733 5733 5733 5734 5734 5734 5734 5734 5734 5734 5735 5735 5736 5736 5737 5737 5737 5737 5738 5739 5740 5740 5741 5740 5740 5741 5741 5740 5740 5740 5740 5739 5739 5739 5738 5738 5737 5737 5737 5738 5738 5738 5738 5738 5738 5738 5739 5739 5740 5740 5740 5741 5741 5741 5741 5741 5742 5742
5731 5732 5732 5732 5731 5730 5730 5729 5728 5728 5728 5729 5729 5730 5730 5730 5731 5730 5730 5729 5728 5728 5728 5728 5728 5728 5727 5727 5727 5727 5727 5727 5727 5727 5727 5727 5728 5728 5729 5729 5730 5730 5730 5731 5731 5732 5733 5733 5734 5734 5734 5734 5735 5734 5734 5734 5733 5733 5733 5733 5732 5732 5732 5731 5731 5730 5731 5731 5731 5731 5731 5731 5731 5731 5732 5732 5733 5734 5734 5735 5735 5735 5735 5736 5736
5720 5721 5723 5723 5724 5723 5723 5722 5721 5721 5721 5721 5722 5722 5722 5723 5723 5723 5724 5723 5723 5723 5722 5722 5722 5722 5722 5722 5721 5721 5720 5720 5720 5721 5721 5722 5722 5722 5723 5723 5723 5723 5724 5724 5725 5725 5725 5726 5726 5727 5727 5728 5728 5727 5727 5727 5727 5727 5726 5726 5726 5726 5725 5725 5724 5724 5724 5724 5724 5724 5724 5723 5723 5724 5725 5725 5726 5726 5727 5728 5728 5728 5729 5729 5729